Volver al catálogo

GEESAT 1-03

ActivoCienciaLEO
NORAD 52787·PAYLOAD·🇨🇳 China

Lanzado Jun 2, 2022 desde Xichang Satellite Launch Center

Loading…

Próximos Pases (próximas 24 horas)

TLE

ActualizadoSource: Space-Track

Época: Sep 14, 2026, 21:00 UTC

1 52787U 22058C   26257.87508239  .00001268  00000-0  18774-3 0  9997
2 52787  49.9868 147.0589 0008150  86.1140 274.0729 14.81605422233230

Sigue GEESAT 1-03 en tiempo real con AllMySat

Download on the App Store